QPF
0.00 0.00 0.00 0.00 0.00 0.00 0.00 0.00 0.00 0.00 0.00 0.00 0.00 0.00 0.00 0.00 0.00 0.00 0.00 0.00 0.00 0.00 0.00 0.00 0.00 0.00 0.01 0.01 0.01 0.01 0.02 0.02 0.02 0.02 0.03 0.03 0.03 0.03 0.03 0.02 0.02 0.02 0.02 0.02
0.00 0.00 0.00 0.00 0.00 0.00 0.00 0.00 0.00 0.00 0.00 0.00 0.00 0.00 0.00 0.00 0.00 0.00 0.00 0.00 0.00 0.00 0.00 0.00 0.00 0.01 0.01 0.01 0.01 0.02 0.03 0.03 0.03 0.04 0.05 0.04 0.05 0.04 0.04 0.04 0.04 0.04 0.04 0.04
0.00 0.00 0.00 0.00 0.00 0.00 0.00 0.00 0.00 0.00 0.00 0.00 0.00 0.00 0.00 0.00 0.00 0.00 0.00 0.00 0.00 0.00 0.00 0.00 0.01 0.01 0.02 0.03 0.03 0.04 0.04 0.05 0.06 0.08 0.09 0.07 0.06 0.06 0.06 0.06 0.06 0.07 0.08 0.09
0.00 0.00 0.00 0.00 0.00 0.00 0.00 0.00 0.00 0.00 0.00 0.00 0.00 0.00 0.00 0.00 0.00 0.00 0.00 0.00 0.00 0.00 0.00 0.00 0.00 0.00 0.01 0.02 0.03 0.05 0.08 0.10 0.10 0.10 0.12 0.12 0.12 0.12 0.12 0.12 0.13 0.14 0.15 0.15
0.00 0.00 0.00 0.00 0.00 0.00 0.00 0.00 0.00 0.00 0.00 0.00 0.00 0.00 0.00 0.00 0.00 0.00 0.00 0.00 0.00 0.00 0.00 0.00 0.00 0.01 0.01 0.01 0.02 0.04 0.08 0.12 0.11 0.13 0.16 0.18 0.20 0.21 0.20 0.18 0.17 0.18 0.17 0.15
0.02 0.01 0.00 0.00 0.00 0.00 0.00 0.01 0.00 0.00 0.00 0.00 0.00 0.00 0.00 0.00 0.00 0.00 0.00 0.00 0.00 0.00 0.00 0.00 0.00 0.01 0.01 0.02 0.03 0.05 0.07 0.09 0.11 0.14 0.17 0.19 0.19 0.20 0.20 0.19 0.17 0.15 0.12 0.09
0.02 0.01 0.00 0.00 0.00 0.00 0.01 0.02 0.00 0.00 0.00 0.00 0.00 0.00 0.00 0.00 0.00 0.00 0.00 0.00 0.00 0.00 0.00 0.00 0.00 0.01 0.01 0.03 0.04 0.04 0.06 0.09 0.12 0.14 0.16 0.17 0.17 0.17 0.17 0.16 0.12 0.09 0.06 0.03
0.01 0.01 0.01 0.01 0.01 0.01 0.01 0.00 0.00 0.00 0.00 0.00 0.00 0.00 0.00 0.00 0.00 0.00 0.00 0.00 0.00 0.00 0.01 0.01 0.01 0.01 0.02 0.03 0.04 0.04 0.06 0.07 0.09 0.10 0.10 0.09 0.09 0.09 0.08 0.07 0.05 0.03 0.02 0.01
0.00 0.00 0.00 0.00 0.00 0.00 0.00 0.00 0.00 0.00 0.00 0.00 0.00 0.00 0.00 0.00 0.00 0.00 0.00 0.00 0.00 0.00 0.01 0.01 0.02 0.02 0.03 0.03 0.04 0.04 0.05 0.06 0.06 0.06 0.06 0.05 0.04 0.03 0.02 0.02 0.02 0.01 0.01 0.00
0.01 0.01 0.00 0.00 0.00 0.00 0.00 0.00 0.00 0.00 0.00 0.00 0.00 0.00 0.00 0.00 0.00 0.00 0.00 0.00 0.00 0.00 0.00 0.01 0.01 0.01 0.02 0.02 0.03 0.03 0.03 0.03 0.03 0.02 0.02 0.02 0.01 0.01 0.00 0.00 0.00 0.00 0.00 0.00
0.01 0.00 0.00 0.00 0.00 0.00 0.00 0.00 0.00 0.00 0.00 0.00 0.00 0.00 0.00 0.00 0.00 0.00 0.00 0.00 0.00 0.00 0.00 0.00 0.00 0.00 0.00 0.01 0.01 0.01 0.01 0.01 0.01 0.01 0.00 0.00 0.00 0.00 0.00 0.00 0.00 0.00 0.00 0.00
0.01 0.01 0.01 0.01 0.00 0.00 0.00 0.00 0.00 0.00 0.00 0.00 0.00 0.00 0.01 0.01 0.00 0.00 0.00 0.00 0.00 0.00 0.00 0.00 0.00 0.00 0.00 0.00 0.00 0.00 0.00 0.00 0.00 0.00 0.00 0.00 0.00 0.00 0.00 0.00 0.00 0.00 0.00 0.00
0.01 0.01 0.00 0.00 0.00 0.00 0.00 0.00 0.00 0.00 0.00 0.00 0.00 0.00 0.01 0.01 0.01 0.01 0.00 0.00 0.00 0.00 0.00 0.00 0.00 0.00 0.00 0.00 0.00 0.00 0.00 0.00 0.00 0.00 0.00 0.00 0.00 0.00 0.00 0.00 0.00 0.00 0.00 0.00
0.00 0.00 0.00 0.00 0.00 0.00 0.00 0.00 0.00 0.00 0.00 0.00 0.00 0.00 0.01 0.01 0.01 0.01 0.01 0.01 0.01 0.00 0.00 0.00 0.00 0.00 0.00 0.00 0.00 0.00 0.00 0.00 0.00 0.00 0.00 0.00 0.00 0.00 0.00 0.00 0.00 0.00 0.00 0.00
0.01 0.00 0.00 0.00 0.00 0.00 0.00 0.00 0.00 0.00 0.00 0.00 0.00 0.00 0.01 0.01 0.01 0.01 0.01 0.01 0.01 0.01 0.00 0.00 0.00 0.00 0.00 0.00 0.00 0.00 0.00 0.00 0.00 0.00 0.00 0.00 0.00 0.00 0.00 0.00 0.00 0.00 0.00 0.00
0.00 0.00 0.00 0.00 0.00 0.00 0.00 0.00 0.00 0.00 0.00 0.00 0.00 0.00 0.01 0.01 0.02 0.02 0.02 0.01 0.01 0.01 0.00 0.00 0.00 0.00 0.00 0.00 0.00 0.00 0.00 0.00 0.00 0.00 0.00 0.00 0.00 0.00 0.00 0.00 0.00 0.00 0.00 0.00
0.00 0.00 0.00 0.00 0.00 0.00 0.00 0.00 0.00 0.00 0.00 0.00 0.00 0.00 0.01 0.01 0.02 0.02 0.02 0.01 0.01 0.01 0.00 0.00 0.00 0.00 0.00 0.00 0.00 0.00 0.00 0.00 0.00 0.00 0.00 0.00 0.00 0.00 0.00 0.00 0.00 0.00 0.00 0.00
0.00 0.00 0.00 0.00 0.00 0.00 0.00 0.00 0.00 0.00 0.00 0.00 0.00 0.01 0.01 0.01 0.02 0.02 0.02 0.02 0.01 0.01 0.00 0.00 0.00 0.00 0.00 0.00 0.00 0.00 0.00 0.00 0.00 0.00 0.00 0.00 0.00 0.00 0.00 0.00 0.00 0.00 0.00 0.00
0.00 0.00 0.00 0.00 0.01 0.01 0.01 0.01 0.00 0.00 0.00 0.01 0.01 0.01 0.01 0.01 0.01 0.02 0.02 0.02 0.01 0.01 0.01 0.00 0.00 0.00 0.00 0.00 0.00 0.00 0.00 0.00 0.00 0.00 0.00 0.00 0.00 0.00 0.00 0.00 0.00 0.00 0.00 0.00
0.01 0.01 0.01 0.02 0.02 0.01 0.01 0.01 0.01 0.01 0.01 0.01 0.01 0.01 0.01 0.02 0.02 0.02 0.02 0.02 0.01 0.01 0.01 0.00 0.00 0.00 0.00 0.00 0.00 0.00 0.00 0.00 0.00 0.00 0.00 0.00 0.00 0.00 0.00 0.00 0.00 0.00 0.00 0.00
0.01 0.01 0.02 0.02 0.02 0.02 0.02 0.01 0.01 0.01 0.01 0.01 0.01 0.01 0.01 0.02 0.01 0.01 0.01 0.01 0.01 0.01 0.00 0.00 0.00 0.00 0.00 0.00 0.00 0.00 0.00 0.00 0.00 0.00 0.00 0.00 0.00 0.00 0.00 0.00 0.00 0.00 0.00 0.00
0.01 0.02 0.02 0.03 0.03 0.03 0.03 0.02 0.02 0.02 0.02 0.02 0.03 0.02 0.02 0.02 0.02 0.01 0.01 0.01 0.01 0.00 0.00 0.00 0.00 0.00 0.00 0.00 0.00 0.00 0.00 0.00 0.00 0.00 0.00 0.00 0.00 0.00 0.00 0.00 0.00 0.00 0.00 0.00
0.01 0.01 0.02 0.02 0.02 0.02 0.03 0.03 0.03 0.03 0.03 0.03 0.03 0.03 0.02 0.02 0.02 0.01 0.01 0.01 0.00 0.00 0.00 0.00 0.00 0.00 0.00 0.00 0.00 0.00 0.00 0.00 0.00 0.00 0.00 0.00 0.00 0.00 0.00 0.00 0.00 0.00 0.00 0.00
0.00 0.00 0.01 0.01 0.02 0.02 0.02 0.02 0.02 0.02 0.02 0.03 0.03 0.03 0.02 0.02 0.01 0.01 0.01 0.00 0.00 0.00 0.00 0.00 0.00 0.00 0.00 0.00 0.00 0.00 0.00 0.00 0.00 0.00 0.00 0.00 0.00 0.00 0.00 0.00 0.00 0.00 0.00 0.00
0.00 0.00 0.00 0.01 0.01 0.01 0.02 0.02 0.02 0.02 0.02 0.02 0.02 0.02 0.02 0.02 0.01 0.01 0.01 0.01 0.00 0.00 0.00 0.00 0.00 0.00 0.00 0.00 0.00 0.00 0.00 0.00 0.00 0.00 0.00 0.00 0.00 0.00 0.00 0.00 0.00 0.00 0.00 0.00
0.00 0.00 0.00 0.00 0.01 0.01 0.01 0.02 0.03 0.03 0.03 0.03 0.03 0.02 0.02 0.02 0.02 0.01 0.01 0.01 0.01 0.00 0.00 0.00 0.00 0.00 0.00 0.00 0.00 0.00 0.00 0.00 0.00 0.00 0.00 0.00 0.00 0.00 0.00 0.00 0.00 0.00 0.00 0.00
0.00 0.00 0.00 0.00 0.00 0.00 0.01 0.01 0.03 0.04 0.04 0.04 0.03 0.03 0.03 0.03 0.02 0.02 0.02 0.01 0.01 0.01 0.00 0.00 0.00 0.00 0.00 0.00 0.00 0.00 0.00 0.00 0.00 0.00 0.00 0.00 0.00 0.00 0.00 0.00 0.00 0.00 0.00 0.00
MSLP
1014.84 1015.54 1016.22 1016.81 1017.22 1017.40 1017.31 1016.95 1016.35 1015.58 1014.72 1013.86 1013.11 1012.54 1012.17 1012.03 1012.07 1012.25 1012.52 1012.79 1013.01 1013.15 1013.19 1013.14 1013.00 1012.82 1012.60 1012.39 1012.19 1012.02 1011.87 1011.75 1011.66 1011.60 1011.58 1011.63 1011.75 1011.96 1012.26 1012.66 1013.15 1013.72 1014.35 1015.02
1014.47 1015.04 1015.56 1015.99 1016.25 1016.30 1016.12 1015.74 1015.18 1014.51 1013.81 1013.17 1012.65 1012.30 1012.15 1012.18 1012.35 1012.63 1012.94 1013.24 1013.47 1013.61 1013.66 1013.63 1013.54 1013.41 1013.27 1013.14 1013.03 1012.94 1012.88 1012.82 1012.78 1012.76 1012.77 1012.81 1012.92 1013.10 1013.37 1013.72 1014.16 1014.67 1015.25 1015.87
1014.04 1014.42 1014.75 1014.97 1015.05 1014.95 1014.70 1014.30 1013.80 1013.27 1012.77 1012.36 1012.11 1012.02 1012.10 1012.33 1012.67 1013.05 1013.43 1013.75 1013.99 1014.13 1014.17 1014.15 1014.07 1013.98 1013.89 1013.83 1013.80 1013.78 1013.79 1013.81 1013.83 1013.86 1013.90 1013.98 1014.09 1014.26 1014.51 1014.83 1015.23 1015.69 1016.22 1016.79
1013.63 1013.79 1013.88 1013.88 1013.76 1013.52 1013.18 1012.78 1012.36 1011.98 1011.69 1011.53 1011.55 1011.73 1012.06 1012.51 1013.00 1013.50 1013.95 1014.30 1014.54 1014.67 1014.70 1014.66 1014.59 1014.51 1014.45 1014.43 1014.45 1014.51 1014.58 1014.67 1014.76 1014.86 1014.95 1015.07 1015.21 1015.40 1015.64 1015.94 1016.31 1016.73 1017.20 1017.71
1013.29 1013.22 1013.07 1012.84 1012.53 1012.16 1011.76 1011.37 1011.03 1010.80 1010.71 1010.79 1011.06 1011.50 1012.06 1012.69 1013.34 1013.95 1014.46 1014.85 1015.10 1015.21 1015.23 1015.17 1015.08 1015.00 1014.96 1014.96 1015.02 1015.12 1015.26 1015.41 1015.57 1015.73 1015.90 1016.07 1016.25 1016.47 1016.72 1017.02 1017.36 1017.74 1018.16 1018.60
1013.01 1012.72 1012.35 1011.94 1011.48 1011.02 1010.58 1010.21 1009.95 1009.86 1009.95 1010.24 1010.72 1011.36 1012.11 1012.90 1013.67 1014.37 1014.94 1015.35 1015.61 1015.72 1015.72 1015.65 1015.55 1015.47 1015.43 1015.45 1015.53 1015.68 1015.86 1016.08 1016.30 1016.53 1016.76 1016.99 1017.22 1017.47 1017.74 1018.03 1018.35 1018.69 1019.04 1019.40
1012.74 1012.28 1011.76 1011.22 1010.67 1010.16 1009.72 1009.39 1009.23 1009.25 1009.49 1009.93 1010.57 1011.35 1012.22 1013.12 1013.97 1014.72 1015.33 1015.77 1016.04 1016.16 1016.17 1016.10 1016.01 1015.93 1015.90 1015.94 1016.05 1016.22 1016.45 1016.72 1017.00 1017.29 1017.58 1017.86 1018.13 1018.40 1018.68 1018.96 1019.24 1019.53 1019.81 1020.09
1012.42 1011.86 1011.27 1010.68 1010.11 1009.61 1009.21 1008.95 1008.87 1009.00 1009.33 1009.87 1010.60 1011.45 1012.38 1013.31 1014.20 1014.97 1015.60 1016.07 1016.36 1016.50 1016.54 1016.50 1016.44 1016.39 1016.39 1016.46 1016.60 1016.81 1017.07 1017.38 1017.70 1018.04 1018.37 1018.68 1018.98 1019.27 1019.53 1019.79 1020.03 1020.25 1020.46 1020.64
1012.01 1011.44 1010.85 1010.28 1009.76 1009.33 1009.01 1008.85 1008.86 1009.06 1009.45 1010.03 1010.78 1011.63 1012.55 1013.46 1014.33 1015.10 1015.73 1016.21 1016.53 1016.73 1016.82 1016.84 1016.84 1016.85 1016.90 1017.02 1017.19 1017.44 1017.73 1018.07 1018.42 1018.78 1019.13 1019.46 1019.77 1020.05 1020.29 1020.50 1020.69 1020.84 1020.97 1021.07
1011.52 1010.99 1010.47 1010.00 1009.58 1009.26 1009.06 1009.00 1009.08 1009.34 1009.76 1010.33 1011.03 1011.83 1012.68 1013.53 1014.34 1015.07 1015.69 1016.18 1016.55 1016.81 1016.98 1017.10 1017.19 1017.28 1017.41 1017.58 1017.80 1018.08 1018.41 1018.76 1019.13 1019.50 1019.85 1020.18 1020.47 1020.72 1020.94 1021.10 1021.23 1021.32 1021.37 1021.39
1010.99 1010.55 1010.14 1009.79 1009.52 1009.34 1009.26 1009.29 1009.45 1009.74 1010.15 1010.67 1011.30 1012.00 1012.74 1013.50 1014.22 1014.90 1015.50 1016.01 1016.43 1016.77 1017.04 1017.26 1017.46 1017.65 1017.86 1018.11 1018.39 1018.70 1019.04 1019.41 1019.78 1020.14 1020.49 1020.80 1021.07 1021.29 1021.46 1021.58 1021.65 1021.68 1021.68 1021.64
1010.50 1010.16 1009.88 1009.66 1009.53 1009.48 1009.52 1009.64 1009.85 1010.15 1010.53 1010.99 1011.52 1012.11 1012.73 1013.37 1014.01 1014.63 1015.20 1015.73 1016.20 1016.62 1016.99 1017.32 1017.63 1017.93 1018.23 1018.55 1018.88 1019.22 1019.58 1019.95 1020.32 1020.67 1020.99 1021.28 1021.52 1021.72 1021.86 1021.94 1021.98 1021.97 1021.93 1021.85
1010.14 1009.89 1009.71 1009.61 1009.59 1009.65 1009.77 1009.96 1010.20 1010.50 1010.84 1011.23 1011.67 1012.14 1012.65 1013.19 1013.75 1014.31 1014.87 1015.41 1015.93 1016.42 1016.88 1017.31 1017.72 1018.11 1018.49 1018.87 1019.24 1019.62 1019.99 1020.36 1020.71 1021.05 1021.36 1021.63 1021.85 1022.03 1022.15 1022.21 1022.23 1022.20 1022.14 1022.05
1009.96 1009.77 1009.66 1009.64 1009.69 1009.81 1009.99 1010.21 1010.47 1010.76 1011.06 1011.39 1011.75 1012.14 1012.56 1013.02 1013.51 1014.02 1014.56 1015.12 1015.67 1016.22 1016.75 1017.26 1017.74 1018.21 1018.65 1019.07 1019.47 1019.87 1020.25 1020.61 1020.96 1021.29 1021.59 1021.85 1022.06 1022.23 1022.35 1022.41 1022.43 1022.40 1022.34 1022.25
1009.98 1009.82 1009.73 1009.73 1009.80 1009.95 1010.14 1010.38 1010.64 1010.91 1011.19 1011.48 1011.79 1012.12 1012.49 1012.90 1013.34 1013.83 1014.36 1014.92 1015.49 1016.07 1016.64 1017.20 1017.73 1018.24 1018.72 1019.17 1019.59 1019.99 1020.38 1020.75 1021.10 1021.42 1021.72 1021.98 1022.20 1022.38 1022.50 1022.58 1022.60 1022.59 1022.53 1022.45
1010.16 1009.99 1009.88 1009.85 1009.91 1010.04 1010.22 1010.45 1010.70 1010.96 1011.24 1011.52 1011.81 1012.13 1012.48 1012.86 1013.29 1013.77 1014.29 1014.84 1015.42 1016.01 1016.60 1017.17 1017.72 1018.25 1018.74 1019.20 1019.63 1020.04 1020.44 1020.81 1021.16 1021.49 1021.80 1022.07 1022.30 1022.49 1022.63 1022.72 1022.76 1022.75 1022.70 1022.62
1010.43 1010.21 1010.05 1009.97 1009.98 1010.07 1010.22 1010.43 1010.67 1010.94 1011.23 1011.53 1011.84 1012.18 1012.54 1012.93 1013.36 1013.84 1014.35 1014.90 1015.47 1016.04 1016.62 1017.19 1017.74 1018.26 1018.75 1019.21 1019.65 1020.07 1020.47 1020.85 1021.21 1021.55 1021.87 1022.16 1022.40 1022.60 1022.75 1022.85 1022.89 1022.89 1022.85 1022.76
1010.72 1010.44 1010.21 1010.06 1010.00 1010.03 1010.15 1010.34 1010.58 1010.87 1011.18 1011.52 1011.87 1012.25 1012.65 1013.07 1013.52 1014.00 1014.51 1015.04 1015.59 1016.14 1016.70 1017.24 1017.77 1018.28 1018.77 1019.23 1019.67 1020.10 1020.51 1020.91 1021.29 1021.64 1021.97 1022.27 1022.52 1022.72 1022.87 1022.96 1023.00 1023.00 1022.94 1022.84
1010.96 1010.62 1010.32 1010.09 1009.97 1009.95 1010.03 1010.20 1010.45 1010.76 1011.11 1011.50 1011.91 1012.34 1012.78 1013.24 1013.71 1014.19 1014.70 1015.21 1015.73 1016.26 1016.78 1017.30 1017.81 1018.31 1018.79 1019.26 1019.72 1020.16 1020.59 1021.01 1021.40 1021.77 1022.10 1022.40 1022.64 1022.83 1022.97 1023.04 1023.06 1023.03 1022.95 1022.83
1011.17 1010.76 1010.39 1010.11 1009.93 1009.86 1009.91 1010.07 1010.32 1010.65 1011.04 1011.48 1011.93 1012.41 1012.89 1013.38 1013.87 1014.36 1014.85 1015.34 1015.83 1016.33 1016.83 1017.32 1017.82 1018.31 1018.80 1019.29 1019.76 1020.23 1020.69 1021.12 1021.53 1021.90 1022.24 1022.52 1022.74 1022.91 1023.02 1023.06 1023.05 1022.99 1022.88 1022.73
1011.36 1010.91 1010.49 1010.16 1009.93 1009.83 1009.85 1009.99 1010.25 1010.59 1011.00 1011.46 1011.95 1012.45 1012.96 1013.46 1013.95 1014.43 1014.91 1015.38 1015.85 1016.32 1016.80 1017.28 1017.78 1018.27 1018.78 1019.29 1019.79 1020.28 1020.76 1021.22 1021.63 1022.01 1022.33 1022.59 1022.79 1022.93 1023.00 1023.00 1022.96 1022.86 1022.72 1022.54
1011.61 1011.13 1010.68 1010.31 1010.05 1009.91 1009.91 1010.03 1010.27 1010.60 1011.01 1011.47 1011.96 1012.47 1012.97 1013.46 1013.94 1014.40 1014.86 1015.31 1015.75 1016.21 1016.68 1017.16 1017.66 1018.17 1018.70 1019.23 1019.77 1020.29 1020.79 1021.25 1021.68 1022.05 1022.35 1022.59 1022.75 1022.85 1022.88 1022.85 1022.77 1022.64 1022.47 1022.28
1011.97 1011.47 1011.01 1010.61 1010.32 1010.16 1010.12 1010.21 1010.42 1010.72 1011.10 1011.53 1011.99 1012.46 1012.93 1013.39 1013.84 1014.28 1014.71 1015.13 1015.56 1016.01 1016.47 1016.96 1017.47 1018.01 1018.56 1019.12 1019.68 1020.22 1020.74 1021.21 1021.63 1021.98 1022.27 1022.48 1022.61 1022.67 1022.67 1022.61 1022.50 1022.35 1022.17 1021.96
1012.46 1011.96 1011.50 1011.09 1010.78 1010.59 1010.51 1010.55 1010.70 1010.95 1011.26 1011.63 1012.03 1012.45 1012.87 1013.28 1013.69 1014.09 1014.49 1014.89 1015.31 1015.75 1016.22 1016.72 1017.25 1017.81 1018.38 1018.96 1019.53 1020.09 1020.60 1021.07 1021.48 1021.81 1022.07 1022.25 1022.36 1022.39 1022.36 1022.28 1022.16 1022.00 1021.81 1021.60
1013.07 1012.58 1012.12 1011.71 1011.39 1011.16 1011.04 1011.02 1011.10 1011.27 1011.50 1011.79 1012.11 1012.45 1012.79 1013.15 1013.51 1013.87 1014.24 1014.63 1015.04 1015.49 1015.97 1016.48 1017.02 1017.59 1018.18 1018.77 1019.34 1019.89 1020.40 1020.85 1021.24 1021.55 1021.78 1021.93 1022.01 1022.03 1021.98 1021.89 1021.76 1021.60 1021.42 1021.21
1013.72 1013.26 1012.82 1012.41 1012.07 1011.81 1011.64 1011.56 1011.56 1011.63 1011.77 1011.96 1012.19 1012.44 1012.72 1013.02 1013.33 1013.66 1014.01 1014.39 1014.81 1015.26 1015.75 1016.27 1016.83 1017.40 1017.99 1018.58 1019.14 1019.67 1020.15 1020.57 1020.93 1021.21 1021.41 1021.54 1021.60 1021.60 1021.54 1021.45 1021.32 1021.16 1020.97 1020.76
1014.32 1013.90 1013.48 1013.09 1012.74 1012.45 1012.23 1012.07 1011.99 1011.98 1012.02 1012.11 1012.25 1012.43 1012.64 1012.88 1013.16 1013.47 1013.81 1014.20 1014.62 1015.09 1015.59 1016.13 1016.69 1017.26 1017.84 1018.40 1018.94 1019.44 1019.88 1020.27 1020.58 1020.83 1021.00 1021.10 1021.13 1021.12 1021.05 1020.95 1020.81 1020.65 1020.46 1020.24
Thickness
5503 5508 5508 5511 5510 5506 5507 5505 5503 5516 5519 5540 5549 5552 5554 5553 5549 5545 5542 5540 5536 5533 5530 5527 5525 5522 5519 5515 5511 5507 5502 5497 5493 5491 5491 5492 5493 5495 5498 5501 5503 5505 5504 5503
5503 5509 5507 5510 5512 5512 5513 5516 5516 5520 5528 5548 5550 5550 5550 5548 5543 5538 5535 5530 5527 5524 5521 5517 5514 5510 5506 5502 5498 5493 5488 5482 5478 5476 5476 5475 5476 5479 5482 5484 5487 5489 5489 5490
5498 5505 5510 5509 5520 5519 5517 5522 5525 5526 5538 5549 5549 5551 5549 5542 5536 5531 5526 5522 5519 5515 5511 5508 5504 5500 5495 5491 5486 5482 5477 5471 5467 5465 5464 5464 5465 5466 5468 5470 5473 5475 5476 5477
5499 5504 5503 5527 5538 5532 5528 5533 5532 5537 5543 5548 5549 5545 5539 5533 5528 5522 5518 5514 5511 5508 5505 5501 5497 5493 5488 5483 5478 5474 5469 5464 5460 5458 5456 5455 5456 5457 5458 5460 5462 5463 5464 5464
5497 5497 5504 5526 5536 5531 5528 5535 5541 5540 5545 5545 5542 5538 5533 5526 5521 5516 5512 5509 5505 5502 5499 5496 5492 5487 5483 5477 5472 5467 5463 5459 5456 5454 5452 5451 5450 5451 5451 5453 5453 5454 5454 5453
5497 5498 5501 5529 5538 5538 5538 5540 5547 5544 5544 5542 5538 5538 5537 5519 5513 5508 5506 5503 5500 5497 5494 5490 5486 5482 5477 5472 5467 5462 5458 5455 5452 5451 5449 5448 5447 5446 5446 5446 5446 5446 5445 5444
5496 5497 5502 5523 5533 5536 5532 5539 5546 5545 5543 5540 5535 5535 5523 5512 5507 5503 5500 5497 5494 5491 5487 5484 5481 5477 5472 5467 5462 5459 5455 5452 5450 5448 5446 5445 5443 5442 5441 5440 5439 5437 5435 5434
5497 5495 5503 5528 5527 5530 5536 5539 5540 5541 5540 5536 5529 5518 5512 5508 5503 5499 5495 5492 5489 5485 5481 5478 5476 5473 5467 5462 5458 5456 5453 5450 5448 5445 5444 5442 5440 5438 5436 5435 5432 5429 5427 5425
5499 5509 5521 5525 5528 5533 5532 5534 5536 5534 5532 5527 5521 5514 5509 5504 5500 5496 5491 5488 5484 5481 5477 5473 5470 5468 5464 5459 5456 5453 5450 5447 5444 5441 5439 5437 5435 5433 5430 5428 5426 5422 5420 5416
5500 5508 5516 5521 5523 5526 5528 5529 5530 5528 5525 5521 5518 5513 5507 5502 5497 5492 5488 5484 5480 5477 5472 5468 5465 5463 5460 5456 5454 5451 5446 5443 5440 5437 5433 5431 5429 5427 5424 5421 5418 5416 5412 5408
5501 5509 5514 5523 5524 5525 5525 5524 5523 5522 5520 5518 5515 5510 5505 5500 5495 5490 5486 5481 5477 5473 5469 5465 5461 5459 5456 5453 5450 5447 5442 5438 5435 5431 5428 5424 5422 5419 5416 5414 5412 5408 5404 5400
5502 5508 5510 5515 5517 5518 5519 5519 5518 5516 5515 5513 5511 5507 5503 5498 5493 5488 5483 5478 5473 5470 5466 5461 5458 5455 5452 5450 5447 5443 5438 5433 5428 5424 5421 5418 5415 5412 5412 5409 5406 5403 5399 5395
5498 5500 5502 5506 5508 5509 5510 5511 5511 5510 5510 5507 5506 5503 5500 5495 5490 5485 5480 5475 5471 5467 5463 5458 5455 5451 5448 5446 5442 5438 5433 5427 5423 5418 5414 5410 5407 5404 5400 5398 5397 5394 5390 5387
5486 5489 5495 5499 5498 5499 5501 5502 5502 5503 5502 5502 5500 5497 5494 5490 5486 5481 5477 5473 5469 5464 5459 5455 5451 5447 5443 5441 5437 5432 5427 5423 5418 5412 5408 5404 5401 5397 5394 5390 5385 5381 5379 5376
5476 5478 5482 5485 5487 5490 5492 5493 5494 5494 5495 5494 5493 5491 5488 5485 5481 5477 5473 5469 5465 5460 5455 5451 5446 5442 5439 5435 5431 5426 5421 5415 5411 5406 5402 5399 5395 5390 5386 5381 5376 5371 5367 5364
5466 5471 5475 5478 5481 5484 5485 5487 5488 5489 5489 5488 5486 5485 5483 5480 5475 5471 5467 5464 5461 5456 5451 5447 5442 5437 5434 5430 5425 5420 5415 5412 5406 5401 5396 5392 5388 5383 5378 5373 5368 5363 5358 5354
5460 5466 5469 5473 5476 5479 5481 5483 5484 5486 5484 5483 5481 5479 5476 5472 5468 5464 5461 5458 5455 5451 5447 5442 5437 5432 5428 5424 5420 5414 5409 5406 5402 5395 5390 5385 5380 5375 5370 5365 5360 5354 5350 5346
5454 5458 5463 5467 5471 5475 5478 5480 5481 5481 5480 5479 5476 5473 5470 5467 5464 5459 5455 5451 5446 5442 5439 5436 5431 5427 5423 5418 5413 5408 5403 5398 5392 5387 5382 5378 5372 5367 5362 5357 5352 5347 5341 5337
5451 5455 5460 5464 5468 5471 5475 5477 5477 5477 5475 5473 5470 5467 5465 5462 5458 5453 5448 5445 5442 5437 5432 5429 5426 5421 5416 5412 5407 5402 5397 5391 5385 5380 5376 5372 5365 5360 5355 5350 5344 5339 5334 5330
5447 5451 5456 5460 5464 5466 5469 5470 5470 5470 5468 5466 5463 5460 5457 5454 5450 5446 5443 5440 5438 5435 5429 5424 5420 5414 5410 5406 5401 5395 5390 5384 5379 5373 5368 5363 5358 5353 5347 5343 5338 5333 5328 5322
5440 5444 5449 5453 5456 5459 5461 5462 5462 5461 5460 5458 5457 5454 5451 5447 5443 5440 5437 5433 5429 5427 5423 5420 5413 5408 5404 5400 5395 5388 5383 5377 5372 5366 5361 5356 5351 5346 5341 5336 5331 5326 5321 5316
5432 5436 5440 5444 5447 5449 5451 5453 5454 5453 5452 5450 5448 5446 5443 5439 5436 5433 5432 5430 5425 5422 5417 5412 5407 5404 5399 5394 5387 5382 5376 5371 5365 5360 5354 5349 5344 5339 5334 5329 5323 5319 5314 5307
5424 5427 5431 5434 5437 5440 5442 5443 5444 5444 5443 5442 5441 5439 5437 5434 5431 5429 5425 5422 5419 5417 5411 5406 5403 5399 5394 5386 5380 5375 5370 5364 5359 5354 5349 5343 5338 5332 5327 5322 5317 5312 5307 5301
5415 5418 5421 5425 5428 5431 5433 5434 5434 5435 5434 5434 5433 5432 5430 5427 5424 5422 5420 5418 5415 5411 5404 5401 5398 5394 5388 5379 5374 5368 5363 5358 5353 5347 5342 5337 5332 5327 5322 5317 5312 5307 5301 5296
5406 5409 5412 5416 5419 5422 5423 5424 5424 5425 5425 5425 5425 5424 5423 5422 5419 5416 5413 5411 5409 5404 5398 5396 5392 5387 5379 5372 5367 5362 5357 5352 5346 5341 5337 5332 5327 5322 5317 5312 5306 5301 5296 5291
5397 5401 5403 5406 5409 5411 5414 5415 5416 5417 5417 5416 5416 5415 5414 5413 5411 5408 5406 5403 5401 5397 5392 5388 5384 5379 5371 5366 5361 5356 5351 5346 5342 5337 5331 5327 5322 5317 5312 5307 5302 5296 5291 5286
5390 5392 5394 5397 5400 5402 5403 5405 5407 5409 5409 5409 5408 5406 5405 5404 5402 5400 5398 5395 5392 5388 5383 5379 5375 5370 5364 5359 5354 5350 5345 5340 5336 5331 5326 5321 5317 5312 5307 5302 5297 5292 5287 5281